CZ-2C R/B

Last updated on Mon Dec 15 2025 00:02:20 GMT+0000 (Coordinated Universal Time)

1 54039U 22132E 25348.02239895 .00034829 00000+0 51515-3 0 9996 2 54039 97.2944 344.2453 0022930 53.1489 307.1863 15.54919698177032
UTC large
Height (km)
Speed (km/s)
/
Latitude / Longitude
Inclination (degrees)
Orbital Period (minutes)
Azimuth
Elevation
Range (km)
Doppler Factor

Next 0 passes for location: London (51.5072 / 0.1276)

Sorry there are no passes over London.